User: anonymous   Login
Location: Unspecified
(0.0000°N, 0.0000°E)
Time: 21:40:31
(UTC+00:00)
Language:

NNS O-23 - Orbit

View from above orbital plane
View from above orbital plane
View from above satellite
View from above satellite

Ground track
Ground track

The orbit data is extracted from the following two-line orbital elements,

1 19070U 88033A   18056.54236753  .00000044  00000-0  71957-4 0  9995
2 19070  90.3651 282.4323 0190572 175.6846 247.3818 13.27423490445043
Epoch (UTC): 25 February 2018 13:01:00
Eccentricity: 0.0190572
inclination: 90.3651°
perigee height: 1013 km
apogee height: 1300 km
right ascension of ascending node: 282.4323°
argument of perigee: 175.6846°
revolutions per day: 13.27423490
mean anomaly at epoch: 247.3818°
orbit number at epoch: 44504

The dashed part of the orbit path shows where the satellite is in the earth's shadow,  

DLR